Weather History for Amsterdam, Netherlands

Change the Weather History Date:

Wednesday, April 3, 2013

  Actual Average Record
Temperature  
Mean Temperature 39 °F -  
Max Temperature 46 °F 55 °F 71 °F (2009)
Min Temperature 32 °F 41 °F 32 °F (2013)
Degree Days  
Heating Degree Days 26    
Moisture  
Dew Point 21 °F    
Average Humidity 49    
Maximum Humidity 69    
Minimum Humidity 24    
Precipitation  
Precipitation 0.00 in - - ()
Sea Level Pressure  
Sea Level Pressure 30.03 in    
Wind  
Wind Speed 15 mph ()    
Max Wind Speed 27 mph    
Max Gust Speed 38 mph    
Visibility 8.2 miles    
Events      
Averages and records for this station are not official NWS values.
T = Trace of Precipitation, MM = Missing Value Source: Averaged Metar Reports

Daily Weather History Graph

Daily Weather History Graph

Search for Another Location

Airport:

Trip Planner

Search our weather history database for the weather conditions in past years. The results will help you decide how hot, cold, wet, or windy it might be!

Date:

Astronomy

Apr. 03, 2013 Rise Set
Actual Time 7:10 AM CEST 8:18 PM CEST
Civil Twilight 6:35 AM CEST 8:53 PM CEST
Nautical Twilight 5:53 AM CEST 9:35 PM CEST
Astronomical Twilight 5:08 AM CEST 10:21 PM CEST
Moon 3:28 AM CEST (4/3) 12:24 PM CEST (4/3)
Length of Visible Light 14h 17m
Length of Day
13h 07m
Waning Gibbous, 47% of the Moon is Illuminated
Apr 3
Waning Gibbous
Apr 10
New
Apr 18
First Quarter
Apr 25
Full
May 2
Last Quarter

Hourly Weather History & Observations

Time (CEST) Temp. Windchill Dew Point Humidity Pressure Visibility Wind Dir Wind Speed Gust Speed Precip Events Conditions
12:25 AM 37.4 °F 28.5 °F 24.8 °F 60% 30.01 in - ENE 15.0 mph - N/A   Clear
12:55 AM 37.4 °F 29.3 °F 23.0 °F 56% 30.04 in - ENE 12.7 mph - N/A   Clear
1:25 AM 35.6 °F 26.6 °F 23.0 °F 60% 30.04 in - ENE 13.8 mph - N/A   Clear
1:55 AM 33.8 °F 23.9 °F 21.2 °F 60% 30.04 in - East 15.0 mph - N/A   Clear
2:00 AM 35 °F - 21 °F 43% 30.05 in 22 mi ENE 15.7 mph - -   Partly Cloudy
2:25 AM 33.8 °F 23.9 °F 21.2 °F 60% 30.04 in - ENE 15.0 mph - N/A   Clear
2:55 AM 33.8 °F 23.9 °F 21.2 °F 60% 30.04 in - ENE 15.0 mph - N/A   Clear
3:25 AM 33.8 °F 23.9 °F 21.2 °F 60% 30.04 in - ENE 15.0 mph - N/A   Clear
3:55 AM 32.0 °F 21.6 °F 21.2 °F 64% 30.04 in 6.2 mi ENE 15.0 mph - N/A   Partly Cloudy
4:25 AM 33.8 °F 24.3 °F 21.2 °F 60% 30.04 in 6.2 mi ENE 13.8 mph - N/A   Mostly Cloudy
4:55 AM 33.8 °F 24.8 °F 23.0 °F 65% 30.04 in 6.2 mi ENE 12.7 mph - N/A   Mostly Cloudy
5:00 AM 33 °F - 22 °F 52% 30.06 in 19 mi ENE 15.7 mph - -   Mostly Cloudy
5:25 AM 33.8 °F 23.2 °F 23.0 °F 65% 30.04 in 6.2 mi ENE 17.3 mph - N/A   Mostly Cloudy
5:55 AM 33.8 °F 23.2 °F 23.0 °F 65% 30.04 in 6.2 mi ENE 17.3 mph - N/A   Mostly Cloudy
6:25 AM 33.8 °F 23.5 °F 23.0 °F 65% 30.04 in 6.2 mi ENE 16.1 mph - N/A   Mostly Cloudy
6:55 AM 33.8 °F 23.5 °F 23.0 °F 65% 30.04 in 6.2 mi ENE 16.1 mph - N/A   Mostly Cloudy
7:25 AM 33.8 °F 23.2 °F 23.0 °F 65% 30.06 in 6.2 mi ENE 17.3 mph - N/A   Scattered Clouds
7:55 AM 32.0 °F 20.8 °F 23.0 °F 69% 30.06 in 6.2 mi ENE 17.3 mph - N/A   Scattered Clouds
8:00 AM 33 °F - 22 °F 53% 30.08 in 16 mi ENE 17.9 mph - -   Partly Cloudy
8:25 AM 33.8 °F 22.8 °F 23.0 °F 65% 30.06 in 6.2 mi ENE 18.4 mph 29.9 mph N/A   Partly Cloudy
8:55 AM 33.8 °F 22.8 °F 23.0 °F 65% 30.06 in 6.2 mi ENE 18.4 mph - N/A   Partly Cloudy
9:25 AM 35.6 °F 25.2 °F 23.0 °F 60% 30.06 in - ENE 18.4 mph - N/A   Clear
9:55 AM 35.6 °F 25.2 °F 21.2 °F 56% 30.06 in - ENE 18.4 mph - N/A   Clear
10:25 AM 37.4 °F 26.4 °F 21.2 °F 52% 30.06 in - ENE 23.0 mph - N/A   Clear
10:55 AM 37.4 °F 26.9 °F 21.2 °F 52% 30.06 in 6.2 mi East 20.7 mph 32.2 mph N/A   Partly Cloudy
11:00 AM 37 °F - 22 °F 42% 30.08 in 15 mi ENE 17.9 mph - -   Partly Cloudy
11:25 AM 39.2 °F 29.0 °F 23.0 °F 52% 30.06 in 6.2 mi ENE 21.9 mph 34.5 mph N/A   Scattered Clouds
11:55 AM 41.0 °F 31.9 °F 21.2 °F 45% 30.06 in 6.2 mi East 19.6 mph 32.2 mph N/A   Partly Cloudy
12:25 PM 41.0 °F 31.4 °F 21.2 °F 45% 30.04 in 6.2 mi East 21.9 mph 33.4 mph N/A   Partly Cloudy
12:55 PM 41.0 °F 31.1 °F 19.4 °F 42% 30.04 in 6.2 mi East 23.0 mph - N/A   Partly Cloudy
1:25 PM 42.8 °F 34.0 °F 19.4 °F 39% 30.04 in 6.2 mi East 20.7 mph - N/A   Partly Cloudy
1:55 PM 44.6 °F 35.9 °F 21.2 °F 39% 30.04 in 6.2 mi ENE 23.0 mph 34.5 mph N/A   Partly Cloudy
2:00 PM 44 °F - 21 °F 27% 30.04 in 19 mi ENE 26.8 mph - -   Partly Cloudy
2:25 PM 44.6 °F 35.9 °F 19.4 °F 37% 30.04 in - ENE 23.0 mph 34.5 mph N/A   Clear
2:55 PM 44.6 °F 35.3 °F 19.4 °F 37% 30.01 in - ENE 26.5 mph 38.0 mph N/A   Clear
3:25 PM 46.4 °F 38.3 °F 19.4 °F 34% 30.01 in - ENE 23.0 mph 35.7 mph N/A   Clear
3:55 PM 44.6 °F 35.7 °F 21.2 °F 39% 30.01 in - NE 24.2 mph - N/A   Clear
4:25 PM 46.4 °F 38.3 °F 19.4 °F 34% 30.01 in - ENE 23.0 mph - N/A   Clear
4:55 PM 46.4 °F 38.7 °F 21.2 °F 37% 29.98 in - ENE 20.7 mph - N/A   Clear
5:00 PM 46 °F - 21 °F 24% 30.00 in 22 mi NE 24.6 mph - -   Scattered Clouds
5:25 PM 46.4 °F 39.0 °F 21.2 °F 37% 29.98 in - ENE 19.6 mph 32.2 mph N/A   Clear
5:55 PM 46.4 °F 38.5 °F 21.2 °F 37% 29.98 in - ENE 21.9 mph - N/A   Clear
6:25 PM 46.4 °F 38.7 °F 17.6 °F 32% 29.98 in - East 20.7 mph - N/A   Clear
6:55 PM 44.6 °F 36.9 °F 19.4 °F 37% 29.98 in - ENE 18.4 mph - N/A   Clear
7:25 PM 44.6 °F 37.4 °F 19.4 °F 37% 29.98 in - East 16.1 mph - N/A   Clear
7:55 PM 42.8 °F 35.8 °F 19.4 °F 39% 29.98 in - ENE 13.8 mph - N/A   Clear
8:00 PM 43 °F - 20 °F 26% 30.00 in 22 mi ENE 13.4 mph - -   Partly Cloudy
8:25 PM 42.8 °F 35.8 °F 19.4 °F 39% 29.98 in - ENE 13.8 mph - N/A   Clear
8:55 PM 41.0 °F 33.1 °F 19.4 °F 42% 29.98 in - ENE 15.0 mph - N/A   Clear
9:25 PM 41.0 °F 34.7 °F 21.2 °F 45% 29.98 in - East 10.4 mph - N/A   Clear
9:55 PM 39.2 °F 33.0 °F 21.2 °F 49% 30.01 in - East 9.2 mph - N/A   Clear
10:25 PM 39.2 °F 32.5 °F 21.2 °F 49% 30.01 in - East 10.4 mph - N/A   Clear
10:55 PM 39.2 °F 33.0 °F 21.2 °F 49% 30.01 in - East 9.2 mph - N/A   Clear
11:00 PM 39 °F - 22 °F 36% 30.01 in 22 mi East 8.9 mph - -   Overcast
11:25 PM 37.4 °F 31.4 °F 21.2 °F 52% 29.98 in - East 8.1 mph - N/A   Clear
11:55 PM 37.4 °F 29.8 °F 21.2 °F 52% 30.01 in - East 11.5 mph - N/A   Clear